Location: Lake Almanor
(40.2485°N, 121.1442°W)
Time: 20:02:15
(UTC-08:00)

STARLINK-1107 - Pass Details

Date: 30 January 2020
Orbit: 345 x 354 km, 53.0° (Epoch: 28 February)

Event Time Altitude Azimuth Distance (km) Brightness Sun altitude
Rises 19:14:55 0° 308° (NW) 2,185 7.4 -22.0°
Reaches altitude 10° 19:16:57 10° 308° (NW) 1,336 6.2 -22.3°
Enters shadow 19:18:33 29° 306° (NW) 698 4.6 -22.7°
